When you browse on this site, cookies collect data to enhance your experience and personalize the content and advertising you see.
Visit our Privacy Policy to learn more. By continuing to use the site, you agree to this use of cookies and data.

Hourly Weather San Francisco

Today, 5 July, Sunday

Time Temperature Precipitation Wind Pressure Humidity
00:00 +17°C° 0.2 mm 2 mps 637 mmHg 89%
01:00 +17°C° 0.2 mm 2 mps 636 mmHg 89%
02:00 +16°C° 0 mm 2 mps 636 mmHg 87%
03:00 +16°C° 0 mm 2 mps 636 mmHg 86%
04:00 +16°C° 0 mm 1 mps 635 mmHg 85%
05:00 +18°C° 0 mm 1 mps 636 mmHg 84%
06:00 +19°C° 0 mm 1 mps 637 mmHg 82%
07:00 +19°C° 0 mm 1 mps 637 mmHg 80%
08:00 +21°C° 0.2 mm 1 mps 638 mmHg 77%
09:00 +23°C° 0.2 mm 1 mps 638 mmHg 73%
10:00 +25°C° 0.2 mm 1 mps 639 mmHg 70%
11:00 +25°C° 0.7 mm 1 mps 638 mmHg 74%
12:00 +25°C° 0.7 mm 1 mps 638 mmHg 78%
13:00 +24°C° 0.7 mm 1 mps 637 mmHg 81%
14:00 +24°C° 1.3 mm 1 mps 636 mmHg 84%
15:00 +24°C° 1.3 mm 1 mps 636 mmHg 86%
16:00 +23°C° 1.3 mm 1 mps 635 mmHg 88%
17:00 +22°C° 0.8 mm 1 mps 635 mmHg 90%
18:00 +19°C° 0.8 mm 0 mps 636 mmHg 92%
19:00 +18°C° 0.8 mm 0 mps 636 mmHg 94%
20:00 +20°C° 0.8 mm 1 mps 636 mmHg 94%
21:00 +19°C° 0.8 mm 1 mps 637 mmHg 93%
22:00 +19°C° 0.8 mm 1 mps 637 mmHg 93%
23:00 +19°C° 0.2 mm 1 mps 637 mmHg 93%

Tomorrow, 6 July, Monday

Time Temperature Precipitation Wind Pressure Humidity
00:00 +19°C° 0.2 mm 1 mps 637 mmHg 93%
01:00 +18°C° 0.2 mm 1 mps 637 mmHg 92%
02:00 +18°C° 0.1 mm 1 mps 636 mmHg 92%
03:00 +18°C° 0.1 mm 1 mps 636 mmHg 92%
04:00 +18°C° 0.1 mm 1 mps 636 mmHg 91%
05:00 +18°C° 0.1 mm 1 mps 636 mmHg 90%
06:00 +19°C° 0.1 mm 1 mps 637 mmHg 89%
07:00 +20°C° 0.1 mm 1 mps 638 mmHg 88%
08:00 +21°C° 0.4 mm 1 mps 638 mmHg 87%
09:00 +21°C° 0.4 mm 1 mps 639 mmHg 86%
10:00 +22°C° 0.4 mm 1 mps 639 mmHg 85%
11:00 +23°C° 0.8 mm 1 mps 639 mmHg 86%
12:00 +23°C° 0.8 mm 1 mps 638 mmHg 86%
13:00 +23°C° 0.8 mm 1 mps 638 mmHg 87%
14:00 +23°C° 0.7 mm 1 mps 637 mmHg 86%
15:00 +23°C° 0.7 mm 1 mps 637 mmHg 85%
16:00 +23°C° 0.7 mm 1 mps 637 mmHg 84%
17:00 +22°C° 0.4 mm 1 mps 637 mmHg 87%
18:00 +21°C° 0.4 mm 1 mps 637 mmHg 89%
19:00 +20°C° 0.4 mm 1 mps 637 mmHg 92%
20:00 +20°C° 0.3 mm 1 mps 637 mmHg 91%
21:00 +19°C° 0.3 mm 1 mps 637 mmHg 90%
22:00 +19°C° 0.3 mm 1 mps 638 mmHg 89%
23:00 +19°C° 0.1 mm 1 mps 637 mmHg 89%

Day after tomorrow, 7 July, Tuesday

Time Temperature Precipitation Wind Pressure Humidity
00:00 +19°C° 0.1 mm 1 mps 637 mmHg 89%
01:00 +19°C° 0.1 mm 1 mps 637 mmHg 89%
02:00 +19°C° 0 mm 1 mps 637 mmHg 89%
03:00 +18°C° 0 mm 1 mps 636 mmHg 89%
04:00 +18°C° 0 mm 1 mps 636 mmHg 89%
05:00 +18°C° 0 mm 1 mps 636 mmHg 88%
06:00 +19°C° 0 mm 1 mps 637 mmHg 87%
07:00 +19°C° 0 mm 1 mps 637 mmHg 86%
08:00 +21°C° 0.1 mm 1 mps 638 mmHg 81%
09:00 +22°C° 0.1 mm 1 mps 639 mmHg 75%
10:00 +24°C° 0.1 mm 1 mps 639 mmHg 70%
11:00 +24°C° 0.4 mm 1 mps 639 mmHg 71%
12:00 +24°C° 0.4 mm 1 mps 638 mmHg 72%
13:00 +25°C° 0.4 mm 1 mps 638 mmHg 73%
14:00 +24°C° 1 mm 1 mps 637 mmHg 76%
15:00 +24°C° 1 mm 1 mps 637 mmHg 78%
16:00 +23°C° 1 mm 1 mps 636 mmHg 81%
17:00 +22°C° 0.8 mm 1 mps 636 mmHg 84%
18:00 +21°C° 0.8 mm 1 mps 636 mmHg 87%
19:00 +20°C° 0.8 mm 1 mps 636 mmHg 90%
20:00 +20°C° 0.5 mm 1 mps 637 mmHg 90%
21:00 +20°C° 0.5 mm 1 mps 637 mmHg 90%
22:00 +19°C° 0.5 mm 1 mps 637 mmHg 89%
23:00 +19°C° 0.2 mm 1 mps 637 mmHg 90%

8 July, Wednesday

Time Temperature Precipitation Wind Pressure Humidity
00:00 +18°C° 0.2 mm 1 mps 637 mmHg 90%
01:00 +18°C° 0.2 mm 1 mps 636 mmHg 91%
02:00 +18°C° 0 mm 1 mps 636 mmHg 90%
03:00 +18°C° 0 mm 1 mps 636 mmHg 90%
04:00 +18°C° 0 mm 1 mps 635 mmHg 89%
05:00 +18°C° 0 mm 1 mps 636 mmHg 88%
06:00 +19°C° 0 mm 1 mps 637 mmHg 86%
07:00 +19°C° 0 mm 1 mps 637 mmHg 85%
08:00 +21°C° 0.1 mm 1 mps 638 mmHg 79%
09:00 +23°C° 0.1 mm 1 mps 638 mmHg 73%
10:00 +25°C° 0.1 mm 1 mps 639 mmHg 67%
11:00 +25°C° 0.8 mm 1 mps 638 mmHg 70%
12:00 +25°C° 0.8 mm 1 mps 638 mmHg 72%
13:00 +26°C° 0.8 mm 1 mps 637 mmHg 74%
14:00 +25°C° 1.3 mm 1 mps 637 mmHg 78%
15:00 +24°C° 1.3 mm 1 mps 636 mmHg 81%
16:00 +24°C° 1.3 mm 1 mps 635 mmHg 84%
17:00 +23°C° 1.1 mm 1 mps 635 mmHg 87%
18:00 +21°C° 1.1 mm 1 mps 635 mmHg 90%
19:00 +20°C° 1.1 mm 1 mps 635 mmHg 92%
20:00 +19°C° 0.2 mm 1 mps 636 mmHg 92%
21:00 +19°C° 0.2 mm 1 mps 636 mmHg 91%
22:00 +17°C° 0.2 mm 2 mps 636 mmHg 91%
23:00 +17°C° 0.2 mm 2 mps 636 mmHg 90%

9 July, Thursday

Time Temperature Precipitation Wind Pressure Humidity
00:00 +17°C° 0.2 mm 2 mps 636 mmHg 90%
01:00 +16°C° 0.2 mm 2 mps 636 mmHg 90%
02:00 +16°C° 0.3 mm 2 mps 636 mmHg 89%
03:00 +16°C° 0.3 mm 2 mps 636 mmHg 88%
04:00 +16°C° 0.3 mm 2 mps 635 mmHg 88%
05:00 +17°C° 0.1 mm 2 mps 636 mmHg 87%
06:00 +18°C° 0.1 mm 1 mps 637 mmHg 86%
07:00 +19°C° 0.1 mm 1 mps 637 mmHg 86%
08:00 +21°C° 0 mm 1 mps 638 mmHg 78%
09:00 +23°C° 0 mm 1 mps 638 mmHg 70%
10:00 +25°C° 0 mm 1 mps 639 mmHg 63%
11:00 +25°C° 0.4 mm 2 mps 638 mmHg 66%
12:00 +25°C° 0.4 mm 2 mps 638 mmHg 69%
13:00 +25°C° 0.4 mm 2 mps 637 mmHg 72%
14:00 +25°C° 0.7 mm 2 mps 636 mmHg 73%
15:00 +25°C° 0.7 mm 1 mps 636 mmHg 74%
16:00 +25°C° 0.7 mm 1 mps 635 mmHg 76%
17:00 +23°C° 0.4 mm 1 mps 635 mmHg 80%
18:00 +21°C° 0.4 mm 1 mps 635 mmHg 85%
19:00 +20°C° 0.4 mm 1 mps 635 mmHg 89%
20:00 +19°C° 0.2 mm 1 mps 636 mmHg 89%
21:00 +18°C° 0.2 mm 2 mps 636 mmHg 88%
22:00 +17°C° 0.2 mm 2 mps 637 mmHg 88%
23:00 +17°C° 0.1 mm 2 mps 637 mmHg 88%

10 July, Friday

Time Temperature Precipitation Wind Pressure Humidity
00:00 +17°C° 0.1 mm 2 mps 636 mmHg 88%
01:00 +16°C° 0.1 mm 2 mps 636 mmHg 88%
02:00 +16°C° 0 mm 2 mps 636 mmHg 87%
03:00 +16°C° 0 mm 2 mps 636 mmHg 85%
04:00 +16°C° 0 mm 2 mps 636 mmHg 84%
05:00 +18°C° 0 mm 1 mps 636 mmHg 83%
06:00 +18°C° 0 mm 1 mps 637 mmHg 83%
07:00 +19°C° 0 mm 1 mps 637 mmHg 82%
08:00 +21°C° 0 mm 1 mps 638 mmHg 76%
09:00 +22°C° 0 mm 1 mps 639 mmHg 71%
10:00 +24°C° 0 mm 1 mps 639 mmHg 66%
11:00 +25°C° 0.2 mm 1 mps 639 mmHg 65%
12:00 +25°C° 0.2 mm 1 mps 638 mmHg 63%
13:00 +26°C° 0.2 mm 1 mps 638 mmHg 62%
14:00 +26°C° 0.5 mm 1 mps 637 mmHg 65%
15:00 +25°C° 0.5 mm 1 mps 637 mmHg 69%
16:00 +25°C° 0.5 mm 1 mps 636 mmHg 73%
17:00 +23°C° 0.2 mm 1 mps 636 mmHg 78%
18:00 +22°C° 0.2 mm 1 mps 636 mmHg 82%
19:00 +20°C° 0.2 mm 1 mps 636 mmHg 87%
20:00 +20°C° 0.1 mm 1 mps 636 mmHg 87%
21:00 +19°C° 0.1 mm 1 mps 637 mmHg 87%
22:00 +18°C° 0.1 mm 2 mps 637 mmHg 87%
23:00 +17°C° 0 mm 2 mps 637 mmHg 86%
Show more